Time,TemperatureF,DewpointF,PressureIn,WindDirection,WindDirectionDegrees,WindSpeedMPH,WindSpeedGustMPH,Humidity,HourlyPrecipIn,Conditions,Clouds,dailyrainin,SoftwareType,DateUTC
2013-10-31 00:06:00,60.0,59.0,29.90,South,184,2.0,4.0,97,0.05,,,0.22,weatherlink.com 1.10,2013-10-31 04:06:00,
2013-10-31 00:21:00,60.2,60.0,29.90,SSW,211,2.0,5.0,98,0.02,,,0.00,weatherlink.com 1.10,2013-10-31 04:21:00,
2013-10-31 00:36:00,60.5,60.0,29.89,SSW,198,0.0,2.0,97,0.01,,,0.00,weatherlink.com 1.10,2013-10-31 04:36:00,
2013-10-31 00:51:00,61.3,61.0,29.87,SSW,213,1.0,2.0,98,0.01,,,0.00,weatherlink.com 1.10,2013-10-31 04:51:00,
2013-10-31 01:21:00,61.8,61.0,29.86,SW,221,0.0,3.0,98,0.00,,,0.00,weatherlink.com 1.10,2013-10-31 05:21:00,
2013-10-31 01:36:00,61.8,61.0,29.85,SW,219,0.0,3.0,98,0.00,,,0.00,weatherlink.com 1.10,2013-10-31 05:36:00,
2013-10-31 01:51:00,62.1,62.0,29.85,SW,221,4.0,8.0,98,0.00,,,0.00,weatherlink.com 1.10,2013-10-31 05:51:00,
2013-10-31 02:06:00,62.3,62.0,29.84,SW,225,1.0,6.0,98,0.00,,,0.00,weatherlink.com 1.10,2013-10-31 06:06:00,
2013-10-31 02:21:00,62.3,62.0,29.84,SW,228,1.0,5.0,97,0.01,,,0.01,weatherlink.com 1.10,2013-10-31 06:21:00,
2013-10-31 02:36:00,62.3,62.0,29.83,SW,232,0.0,6.0,97,0.01,,,0.01,weatherlink.com 1.10,2013-10-31 06:36:00,
2013-10-31 02:51:00,62.3,62.0,29.83,SW,228,1.0,6.0,97,0.02,,,0.02,weatherlink.com 1.10,2013-10-31 06:51:00,
2013-10-31 03:06:00,62.3,62.0,29.83,SW,232,2.0,7.0,97,0.02,,,0.02,weatherlink.com 1.10,2013-10-31 07:06:00,
2013-10-31 03:21:00,62.3,62.0,29.83,WSW,240,1.0,6.0,97,0.01,,,0.02,weatherlink.com 1.10,2013-10-31 07:21:00,
2013-10-31 03:36:00,62.3,62.0,29.83,SW,215,2.0,5.0,97,0.01,,,0.02,weatherlink.com 1.10,2013-10-31 07:36:00,
2013-10-31 03:51:00,62.3,62.0,29.82,SW,226,1.0,6.0,97,0.00,,,0.02,weatherlink.com 1.10,2013-10-31 07:51:00,
2013-10-31 04:07:00,62.3,62.0,29.81,SW,225,4.0,5.0,97,0.01,,,0.03,weatherlink.com 1.10,2013-10-31 08:07:00,
2013-10-31 04:22:00,62.2,61.0,29.80,SSW,194,1.0,3.0,97,0.01,,,0.03,weatherlink.com 1.10,2013-10-31 08:22:00,
2013-10-31 04:37:00,62.2,61.0,29.79,SW,230,2.0,4.0,97,0.01,,,0.03,weatherlink.com 1.10,2013-10-31 08:37:00,
2013-10-31 04:52:00,62.1,61.0,29.79,SSW,213,1.0,3.0,97,0.02,,,0.04,weatherlink.com 1.10,2013-10-31 08:52:00,
2013-10-31 05:07:00,61.8,61.0,29.78,SW,225,0.0,4.0,97,0.01,,,0.04,weatherlink.com 1.10,2013-10-31 09:07:00,
2013-10-31 05:22:00,61.6,61.0,29.77,SW,215,2.0,5.0,97,0.02,,,0.05,weatherlink.com 1.10,2013-10-31 09:22:00,
2013-10-31 05:37:00,61.6,61.0,29.77,SW,220,0.0,3.0,97,0.03,,,0.06,weatherlink.com 1.10,2013-10-31 09:37:00,
2013-10-31 05:52:00,61.6,61.0,29.77,WSW,237,0.0,9.0,97,0.02,,,0.06,weatherlink.com 1.10,2013-10-31 09:52:00,
2013-10-31 06:07:00,61.6,61.0,29.75,SW,219,0.0,2.0,97,0.03,,,0.07,weatherlink.com 1.10,2013-10-31 10:07:00,
2013-10-31 06:22:00,61.6,61.0,29.75,SSW,200,1.0,3.0,97,0.04,,,0.09,weatherlink.com 1.10,2013-10-31 10:22:00,
2013-10-31 06:37:00,61.5,61.0,29.75,West,261,1.0,7.0,97,0.04,,,0.10,weatherlink.com 1.10,2013-10-31 10:37:00,
2013-10-31 06:52:00,61.3,61.0,29.74,WSW,239,1.0,4.0,97,0.06,,,0.12,weatherlink.com 1.10,2013-10-31 10:52:00,
2013-10-31 07:07:00,61.1,60.0,29.73,SSW,211,1.0,5.0,97,0.07,,,0.14,weatherlink.com 1.10,2013-10-31 11:07:00,
2013-10-31 07:22:00,61.0,60.0,29.72,ESE,104,1.0,7.0,97,0.06,,,0.15,weatherlink.com 1.10,2013-10-31 11:22:00,
2013-10-31 07:37:00,60.7,60.0,29.72,SW,217,1.0,6.0,97,0.05,,,0.15,weatherlink.com 1.10,2013-10-31 11:37:00,
2013-10-31 07:52:00,60.5,60.0,29.71,South,185,0.0,3.0,97,0.04,,,0.16,weatherlink.com 1.10,2013-10-31 11:52:00,
2013-10-31 08:07:00,60.4,60.0,29.70,WSW,257,1.0,6.0,97,0.03,,,0.17,weatherlink.com 1.10,2013-10-31 12:07:00,
2013-10-31 08:22:00,60.2,59.0,29.69,SW,217,0.0,9.0,97,0.04,,,0.19,weatherlink.com 1.10,2013-10-31 12:22:00,
2013-10-31 08:37:00,60.1,59.0,29.70,WSW,250,2.0,11.0,97,0.06,,,0.21,weatherlink.com 1.10,2013-10-31 12:37:00,
2013-10-31 08:52:00,59.9,59.0,29.69,SSW,206,3.0,10.0,97,0.06,,,0.22,weatherlink.com 1.10,2013-10-31 12:52:00,
2013-10-31 09:07:00,59.4,59.0,29.69,West,266,1.0,7.0,97,0.06,,,0.23,weatherlink.com 1.10,2013-10-31 13:07:00,
2013-10-31 09:22:00,58.9,58.0,29.68,SW,217,1.0,9.0,97,0.05,,,0.24,weatherlink.com 1.10,2013-10-31 13:22:00,
2013-10-31 09:37:00,58.7,58.0,29.68,SW,217,0.0,5.0,97,0.04,,,0.25,weatherlink.com 1.10,2013-10-31 13:37:00,
2013-10-31 09:52:00,58.6,58.0,29.68,SSW,213,1.0,4.0,97,0.06,,,0.28,weatherlink.com 1.10,2013-10-31 13:52:00,
2013-10-31 10:07:00,58.5,58.0,29.67,South,175,0.0,5.0,97,0.08,,,0.31,weatherlink.com 1.10,2013-10-31 14:07:00,
2013-10-31 10:23:00,58.4,58.0,29.66,SSW,197,3.0,10.0,97,0.08,,,0.32,weatherlink.com 1.10,2013-10-31 14:23:00,
2013-10-31 10:38:00,58.6,58.0,29.65,SW,219,3.0,7.0,97,0.08,,,0.33,weatherlink.com 1.10,2013-10-31 14:38:00,
2013-10-31 10:53:00,58.8,58.0,29.65,SW,227,2.0,7.0,97,0.06,,,0.34,weatherlink.com 1.10,2013-10-31 14:53:00,
2013-10-31 11:08:00,58.9,58.0,29.64,SW,215,4.0,5.0,97,0.06,,,0.37,weatherlink.com 1.10,2013-10-31 15:08:00,
2013-10-31 11:23:00,59.0,58.0,29.64,SW,219,5.0,6.0,97,0.09,,,0.41,weatherlink.com 1.10,2013-10-31 15:23:00,
2013-10-31 11:38:00,59.1,58.0,29.63,SSW,210,1.0,6.0,97,0.09,,,0.42,weatherlink.com 1.10,2013-10-31 15:38:00,
2013-10-31 11:53:00,59.1,58.0,29.63,SW,219,0.0,8.0,97,0.11,,,0.45,weatherlink.com 1.10,2013-10-31 15:53:00,
2013-10-31 12:08:00,59.2,58.0,29.62,SSW,194,3.0,7.0,97,0.09,,,0.47,weatherlink.com 1.10,2013-10-31 16:08:00,
2013-10-31 12:23:00,59.2,58.0,29.62,SW,232,2.0,6.0,97,0.07,,,0.48,weatherlink.com 1.10,2013-10-31 16:23:00,
2013-10-31 12:38:00,59.3,59.0,29.61,SW,220,0.0,6.0,97,0.06,,,0.49,weatherlink.com 1.10,2013-10-31 16:38:00,
2013-10-31 12:53:00,59.3,59.0,29.60,SSW,205,2.0,5.0,97,0.05,,,0.50,weatherlink.com 1.10,2013-10-31 16:53:00,
2013-10-31 13:08:00,59.3,59.0,29.59,SW,225,3.0,6.0,97,0.04,,,0.51,weatherlink.com 1.10,2013-10-31 17:08:00,
2013-10-31 13:23:00,59.2,58.0,29.57,SW,217,1.0,6.0,97,0.05,,,0.53,weatherlink.com 1.10,2013-10-31 17:23:00,
2013-10-31 13:38:00,59.1,58.0,29.56,SW,223,0.0,5.0,97,0.05,,,0.54,weatherlink.com 1.10,2013-10-31 17:38:00,
2013-10-31 13:53:00,59.1,58.0,29.54,SW,223,1.0,6.0,97,0.06,,,0.56,weatherlink.com 1.10,2013-10-31 17:53:00,
2013-10-31 14:08:00,58.9,58.0,29.52,NNE,32,1.0,7.0,97,0.07,,,0.58,weatherlink.com 1.10,2013-10-31 18:08:00,
2013-10-31 14:23:00,58.9,58.0,29.50,SW,223,1.0,5.0,97,0.06,,,0.59,weatherlink.com 1.10,2013-10-31 18:23:00,
2013-10-31 14:38:00,58.9,58.0,29.48,SW,216,4.0,5.0,97,0.06,,,0.60,weatherlink.com 1.10,2013-10-31 18:38:00,
2013-10-31 14:53:00,58.7,58.0,29.47,ESE,113,2.0,5.0,97,0.05,,,0.61,weatherlink.com 1.10,2013-10-31 18:53:00,
2013-10-31 15:08:00,58.7,58.0,29.46,SW,236,2.0,6.0,97,0.07,,,0.65,weatherlink.com 1.10,2013-10-31 19:08:00,
2013-10-31 15:38:00,58.6,58.0,29.43,SSW,192,0.0,6.0,97,0.09,,,0.69,weatherlink.com 1.10,2013-10-31 19:38:00,
2013-10-31 15:53:00,58.8,58.0,29.42,South,182,1.0,8.0,97,0.09,,,0.70,weatherlink.com 1.10,2013-10-31 19:53:00,
2013-10-31 16:08:00,58.9,58.0,29.40,SSW,203,0.0,9.0,98,0.05,,,0.70,weatherlink.com 1.10,2013-10-31 20:08:00,
2013-10-31 16:23:00,58.7,58.0,29.38,South,178,2.0,5.0,97,0.04,,,0.72,weatherlink.com 1.10,2013-10-31 20:23:00,
2013-10-31 16:38:00,58.6,58.0,29.38,SW,227,1.0,10.0,97,0.03,,,0.72,weatherlink.com 1.10,2013-10-31 20:38:00,
2013-10-31 16:53:00,58.5,58.0,29.37,SSW,201,1.0,8.0,97,0.03,,,0.73,weatherlink.com 1.10,2013-10-31 20:53:00,
2013-10-31 17:08:00,58.6,58.0,29.36,WSW,240,2.0,10.0,98,0.03,,,0.74,weatherlink.com 1.10,2013-10-31 21:08:00,
2013-10-31 17:23:00,58.8,58.0,29.35,SW,236,0.0,5.0,98,0.03,,,0.75,weatherlink.com 1.10,2013-10-31 21:23:00,
2013-10-31 17:38:00,59.0,59.0,29.34,WSW,246,0.0,4.0,98,0.03,,,0.75,weatherlink.com 1.10,2013-10-31 21:38:00,
2013-10-31 17:53:00,59.3,59.0,29.33,South,183,0.0,6.0,98,0.02,,,0.75,weatherlink.com 1.10,2013-10-31 21:53:00,
2013-10-31 18:09:00,59.6,59.0,29.32,SSW,204,1.0,6.0,98,0.01,,,0.75,weatherlink.com 1.10,2013-10-31 22:09:00,
2013-10-31 18:24:00,60.0,60.0,29.32,SW,222,2.0,6.0,98,0.00,,,0.75,weatherlink.com 1.10,2013-10-31 22:24:00,
2013-10-31 18:39:00,60.3,60.0,29.30,SSW,192,5.0,5.0,98,0.00,,,0.75,weatherlink.com 1.10,2013-10-31 22:39:00,
2013-10-31 18:54:00,60.4,60.0,29.30,SW,228,3.0,4.0,98,0.01,,,0.76,weatherlink.com 1.10,2013-10-31 22:54:00,
2013-10-31 19:09:00,60.6,60.0,29.29,SSW,200,0.0,5.0,98,0.01,,,0.76,weatherlink.com 1.10,2013-10-31 23:09:00,
2013-10-31 19:24:00,60.8,60.0,29.29,SSW,211,3.0,10.0,98,0.01,,,0.76,weatherlink.com 1.10,2013-10-31 23:24:00,
2013-10-31 19:39:00,60.8,60.0,29.28,SW,216,2.0,5.0,98,0.01,,,0.76,weatherlink.com 1.10,2013-10-31 23:39:00,
2013-10-31 19:54:00,60.8,60.0,29.27,SSW,209,1.0,4.0,98,0.02,,,0.78,weatherlink.com 1.10,2013-10-31 23:54:00,
2013-10-31 20:09:00,60.7,60.0,29.28,West,267,0.0,4.0,98,0.02,,,0.78,weatherlink.com 1.10,2013-11-01 00:09:00,
2013-10-31 20:39:00,60.6,60.0,29.25,SSW,203,0.0,3.0,98,0.07,,,0.83,weatherlink.com 1.10,2013-11-01 00:39:00,
2013-10-31 20:54:00,60.7,60.0,29.23,SW,219,1.0,6.0,98,0.06,,,0.84,weatherlink.com 1.10,2013-11-01 00:54:00,
2013-10-31 21:09:00,60.7,60.0,29.24,WSW,238,1.0,3.0,98,0.05,,,0.84,weatherlink.com 1.10,2013-11-01 01:09:00,
2013-10-31 21:24:00,60.7,60.0,29.23,SW,232,0.0,3.0,98,0.05,,,0.85,weatherlink.com 1.10,2013-11-01 01:24:00,
2013-10-31 21:39:00,60.4,60.0,29.22,SW,221,0.0,3.0,98,0.03,,,0.86,weatherlink.com 1.10,2013-11-01 01:39:00,
2013-10-31 21:54:00,60.3,60.0,29.21,SW,223,2.0,4.0,98,0.04,,,0.88,weatherlink.com 1.10,2013-11-01 01:54:00,
2013-10-31 22:09:00,60.0,60.0,29.23,WSW,256,3.0,14.0,98,0.16,,,1.00,weatherlink.com 1.10,2013-11-01 02:09:00,
2013-10-31 22:24:00,58.3,57.0,29.23,WSW,245,4.0,10.0,96,0.17,,,1.02,weatherlink.com 1.10,2013-11-01 02:24:00,
2013-10-31 22:39:00,57.7,57.0,29.26,SSW,213,4.0,12.0,97,0.17,,,1.03,weatherlink.com 1.10,2013-11-01 02:39:00,
2013-10-31 22:54:00,57.4,57.0,29.25,WNW,282,13.0,16.0,97,0.17,,,1.05,weatherlink.com 1.10,2013-11-01 02:54:00,
2013-10-31 23:09:00,56.6,56.0,29.24,SW,226,4.0,16.0,96,0.06,,,1.06,weatherlink.com 1.10,2013-11-01 03:09:00,
2013-10-31 23:24:00,55.8,55.0,29.24,West,279,9.0,21.0,96,0.04,,,1.06,weatherlink.com 1.10,2013-11-01 03:24:00,
2013-10-31 23:39:00,55.2,54.0,29.26,WSW,238,3.0,15.0,96,0.03,,,1.06,weatherlink.com 1.10,2013-11-01 03:39:00,
2013-10-31 23:54:00,54.8,54.0,29.29,WNW,290,7.0,9.0,97,0.01,,,1.06,weatherlink.com 1.10,2013-11-01 03:54:00,